Вернуться в каталог

LUNA-1

АктивенНаукаSSO
NORAD 66777·PAYLOAD·🇹🇷 Turkey

Запущен Nov 28, 2025 с Vandenberg Space Force Base

Loading…

Ближайшие Пролёты (ближайшие 24 часа)

TLE

СвежийSource: Space-Track

Эпоха: Sep 14, 2026, 12:20 UTC

1 66777U 25276DR  26257.51449127  .00007446  00000-0  30895-3 0  9999
2 66777  97.4183 330.8857 0000334 250.8404 109.2797 15.24147773 44064

Отслеживайте LUNA-1 в реальном времени с AllMySat

Download on the App Store